Time,TemperatureF,DewpointF,PressureIn,WindDirection,WindDirectionDegrees,WindSpeedMPH,WindSpeedGustMPH,Humidity,HourlyPrecipIn,Conditions,Clouds,dailyrainin,SoftwareType,DateUTC
2013-07-14 00:00:00,71.1,65.0,30.07,ENE,75,0.0,5.0,81,0.00,,SKC,0.00,VWS V14.01,2013-07-14 04:00:00,
2013-07-14 00:01:00,71.1,65.0,30.07,ENE,75,3.0,5.0,81,0.00,,SKC,0.00,VWS V14.01,2013-07-14 04:01:00,
2013-07-14 00:02:00,71.1,65.0,30.07,ENE,75,0.0,5.0,81,0.00,,SKC,0.00,VWS V14.01,2013-07-14 04:02:00,
2013-07-14 00:08:00,71.1,65.0,30.07,ENE,77,0.0,5.0,81,0.00,,SKC,0.00,VWS V14.01,2013-07-14 04:08:00,
2013-07-14 00:13:00,71.1,65.0,30.07,ENE,77,0.0,5.0,81,0.00,,SKC,0.00,VWS V14.01,2013-07-14 04:13:00,
2013-07-14 00:18:00,70.9,64.8,30.06,East,79,0.0,6.0,81,0.00,,SKC,0.00,VWS V14.01,2013-07-14 04:18:00,
2013-07-14 00:23:00,70.9,65.1,30.06,NE,51,0.0,6.0,82,0.00,,SKC,0.00,VWS V14.01,2013-07-14 04:23:00,
2013-07-14 00:28:00,70.9,65.1,30.06,East,90,2.0,6.0,82,0.00,,SKC,0.00,VWS V14.01,2013-07-14 04:28:00,
2013-07-14 00:33:00,70.9,65.1,30.06,East,84,0.0,6.0,82,0.00,,SKC,0.00,VWS V14.01,2013-07-14 04:33:00,
2013-07-14 00:38:00,70.8,65.0,30.06,East,98,3.0,6.0,82,0.00,,SKC,0.00,VWS V14.01,2013-07-14 04:38:00,
2013-07-14 00:43:00,70.8,65.0,30.06,East,96,0.0,6.0,82,0.00,,SKC,0.00,VWS V14.01,2013-07-14 04:43:00,
2013-07-14 00:48:00,70.6,64.8,30.06,East,94,2.0,6.0,82,0.00,,SKC,0.00,VWS V14.01,2013-07-14 04:48:00,
2013-07-14 00:53:00,70.4,64.7,30.06,East,94,0.0,6.0,82,0.00,,SKC,0.00,VWS V14.01,2013-07-14 04:53:00,
2013-07-14 00:58:00,70.3,64.9,30.06,East,94,0.0,6.0,83,0.00,,SKC,0.00,VWS V14.01,2013-07-14 04:58:00,
2013-07-14 01:00:00,70.1,64.7,30.06,East,92,0.0,6.0,83,0.00,,SKC,0.00,VWS V14.01,2013-07-14 05:00:00,
2013-07-14 01:04:00,70.1,64.7,30.06,East,92,0.0,0.0,83,0.00,,SKC,0.00,VWS V14.01,2013-07-14 05:04:00,
2013-07-14 01:09:00,69.9,64.5,30.06,East,91,0.0,0.0,83,0.00,,SKC,0.00,VWS V14.01,2013-07-14 05:09:00,
2013-07-14 01:14:00,69.9,64.8,30.06,East,91,4.0,4.0,84,0.00,,SKC,0.00,VWS V14.01,2013-07-14 05:14:00,
2013-07-14 01:19:00,70.1,65.1,30.06,East,92,4.0,5.0,84,0.00,,SKC,0.00,VWS V14.01,2013-07-14 05:19:00,
2013-07-14 01:24:00,69.9,64.8,30.06,East,92,0.0,5.0,84,0.00,,SKC,0.00,VWS V14.01,2013-07-14 05:24:00,
2013-07-14 01:29:00,69.9,64.8,30.06,East,92,0.0,5.0,84,0.00,,SKC,0.00,VWS V14.01,2013-07-14 05:29:00,
2013-07-14 01:34:00,69.9,64.8,30.06,East,92,2.0,5.0,84,0.00,,SKC,0.00,VWS V14.01,2013-07-14 05:34:00,
2013-07-14 01:39:00,69.9,64.8,30.06,East,92,0.0,6.0,84,0.00,,SKC,0.00,VWS V14.01,2013-07-14 05:39:00,
2013-07-14 01:44:00,69.9,64.8,30.06,East,92,4.0,6.0,84,0.00,,SKC,0.00,VWS V14.01,2013-07-14 05:44:00,
2013-07-14 01:49:00,69.9,64.8,30.06,East,96,0.0,6.0,84,0.00,,SKC,0.00,VWS V14.01,2013-07-14 05:49:00,
2013-07-14 01:54:00,69.9,64.8,30.06,East,93,0.0,6.0,84,0.00,,SKC,0.00,VWS V14.01,2013-07-14 05:54:00,
2013-07-14 01:59:00,69.9,64.8,30.06,East,96,0.0,6.0,84,0.00,,SKC,0.00,VWS V14.01,2013-07-14 05:59:00,
2013-07-14 02:00:00,69.9,64.8,30.05,East,95,4.0,6.0,84,0.00,,SKC,0.00,VWS V14.01,2013-07-14 06:00:00,
2013-07-14 02:05:00,69.9,65.2,30.05,East,96,1.0,5.0,85,0.00,,SKC,0.00,VWS V14.01,2013-07-14 06:05:00,
2013-07-14 02:10:00,69.8,65.1,30.05,East,94,0.0,5.0,85,0.00,,SKC,0.00,VWS V14.01,2013-07-14 06:10:00,
2013-07-14 02:15:00,69.8,65.1,30.05,East,93,0.0,5.0,85,0.00,,SKC,0.00,VWS V14.01,2013-07-14 06:15:00,
2013-07-14 02:20:00,69.8,65.1,30.05,East,93,0.0,5.0,85,0.00,,SKC,0.00,VWS V14.01,2013-07-14 06:20:00,
2013-07-14 02:25:00,69.6,64.9,30.05,East,93,0.0,5.0,85,0.00,,SKC,0.00,VWS V14.01,2013-07-14 06:25:00,
2013-07-14 02:30:00,69.4,64.7,30.05,East,93,0.0,5.0,85,0.00,,SKC,0.00,VWS V14.01,2013-07-14 06:30:00,
2013-07-14 02:35:00,69.4,64.7,30.05,East,93,0.0,5.0,85,0.00,,SKC,0.00,VWS V14.01,2013-07-14 06:35:00,
2013-07-14 02:40:00,69.4,65.0,30.05,East,93,2.0,5.0,86,0.00,,SKC,0.00,VWS V14.01,2013-07-14 06:40:00,
2013-07-14 02:46:00,69.4,65.0,30.05,East,93,0.0,5.0,86,0.00,,SKC,0.00,VWS V14.01,2013-07-14 06:46:00,
2013-07-14 02:51:00,69.4,65.0,30.05,East,93,0.0,5.0,86,0.00,,SKC,0.00,VWS V14.01,2013-07-14 06:51:00,
2013-07-14 02:56:00,69.4,65.0,30.05,East,93,0.0,5.0,86,0.00,,SKC,0.00,VWS V14.01,2013-07-14 06:56:00,
2013-07-14 03:00:00,69.6,65.2,30.05,East,93,2.0,5.0,86,0.00,,SKC,0.00,VWS V14.01,2013-07-14 07:00:00,
2013-07-14 03:01:00,69.6,65.2,30.05,East,93,4.0,5.0,86,0.00,,SKC,0.00,VWS V14.01,2013-07-14 07:01:00,
2013-07-14 03:06:00,69.6,64.9,30.05,East,93,0.0,5.0,85,0.00,,SKC,0.00,VWS V14.01,2013-07-14 07:06:00,
2013-07-14 03:11:00,69.6,64.9,30.05,East,94,0.0,5.0,85,0.00,,SKC,0.00,VWS V14.01,2013-07-14 07:11:00,
2013-07-14 03:16:00,69.6,64.9,30.05,East,98,5.0,6.0,85,0.00,,SKC,0.00,VWS V14.01,2013-07-14 07:16:00,
2013-07-14 03:21:00,69.4,64.7,30.05,East,101,0.0,6.0,85,0.00,,SKC,0.00,VWS V14.01,2013-07-14 07:21:00,
2013-07-14 03:27:00,69.3,64.9,30.05,East,98,0.0,6.0,86,0.00,,SKC,0.00,VWS V14.01,2013-07-14 07:27:00,
2013-07-14 03:32:00,69.3,64.9,30.05,East,97,0.0,6.0,86,0.00,,SKC,0.00,VWS V14.01,2013-07-14 07:32:00,
2013-07-14 03:37:00,69.1,64.7,30.05,East,97,5.0,6.0,86,0.00,,SKC,0.00,VWS V14.01,2013-07-14 07:37:00,
2013-07-14 03:42:00,69.1,64.7,30.05,East,99,5.0,6.0,86,0.00,,SKC,0.00,VWS V14.01,2013-07-14 07:42:00,
2013-07-14 03:47:00,68.9,64.6,30.05,East,98,5.0,6.0,86,0.00,,SKC,0.00,VWS V14.01,2013-07-14 07:47:00,
2013-07-14 03:52:00,68.9,64.9,30.05,ESE,103,6.0,7.0,87,0.00,,SKC,0.00,VWS V14.01,2013-07-14 07:52:00,
2013-07-14 03:57:00,69.1,65.1,30.05,ESE,109,0.0,7.0,87,0.00,,SKC,0.00,VWS V14.01,2013-07-14 07:57:00,
2013-07-14 04:00:00,69.1,64.7,30.05,ESE,111,0.0,7.0,86,0.00,,SKC,0.00,VWS V14.01,2013-07-14 08:00:00,
2013-07-14 04:03:00,69.1,64.7,30.05,ESE,115,1.0,6.0,86,0.00,,SKC,0.00,VWS V14.01,2013-07-14 08:03:00,
2013-07-14 04:08:00,69.1,64.7,30.05,ESE,111,0.0,6.0,86,0.00,,SKC,0.00,VWS V14.01,2013-07-14 08:08:00,
2013-07-14 04:13:00,68.9,64.6,30.05,ESE,109,0.0,6.0,86,0.00,,SKC,0.00,VWS V14.01,2013-07-14 08:13:00,
2013-07-14 04:18:00,68.8,64.4,30.05,ESE,109,0.0,6.0,86,0.00,,SKC,0.00,VWS V14.01,2013-07-14 08:18:00,
2013-07-14 04:23:00,68.8,64.8,30.05,ESE,108,0.0,6.0,87,0.00,,SKC,0.00,VWS V14.01,2013-07-14 08:23:00,
2013-07-14 04:28:00,68.6,64.6,30.05,ESE,108,0.0,6.0,87,0.00,,SKC,0.00,VWS V14.01,2013-07-14 08:28:00,
2013-07-14 04:33:00,68.8,64.8,30.05,ESE,108,0.0,6.0,87,0.00,,SKC,0.00,VWS V14.01,2013-07-14 08:33:00,
2013-07-14 04:39:00,68.6,64.6,30.05,ESE,108,0.0,6.0,87,0.00,,SKC,0.00,VWS V14.01,2013-07-14 08:39:00,
2013-07-14 04:44:00,68.6,64.6,30.05,ESE,108,0.0,6.0,87,0.00,,SKC,0.00,VWS V14.01,2013-07-14 08:44:00,
2013-07-14 04:49:00,68.6,64.6,30.05,ESE,108,2.0,6.0,87,0.00,,SKC,0.00,VWS V14.01,2013-07-14 08:49:00,
2013-07-14 04:54:00,68.9,64.9,30.05,ESE,108,2.0,6.0,87,0.00,,SKC,0.00,VWS V14.01,2013-07-14 08:54:00,
2013-07-14 04:59:00,69.1,65.1,30.05,ESE,108,0.0,6.0,87,0.00,,SKC,0.00,VWS V14.01,2013-07-14 08:59:00,
2013-07-14 05:00:00,69.3,64.9,30.05,ESE,108,0.0,6.0,86,0.00,,SKC,0.00,VWS V14.01,2013-07-14 09:00:00,
2013-07-14 05:04:00,69.3,64.9,30.05,ESE,108,0.0,0.0,86,0.00,,SKC,0.00,VWS V14.01,2013-07-14 09:04:00,
2013-07-14 05:09:00,69.3,64.9,30.05,ESE,108,0.0,0.0,86,0.00,,SKC,0.00,VWS V14.01,2013-07-14 09:09:00,
2013-07-14 05:15:00,69.3,64.9,30.05,ESE,108,3.0,5.0,86,0.00,,SKC,0.00,VWS V14.01,2013-07-14 09:15:00,
2013-07-14 05:20:00,69.4,65.0,30.04,ESE,108,0.0,5.0,86,0.00,,SKC,0.00,VWS V14.01,2013-07-14 09:20:00,
2013-07-14 05:25:00,69.3,64.9,30.04,ESE,108,0.0,5.0,86,0.00,,SKC,0.00,VWS V14.01,2013-07-14 09:25:00,
2013-07-14 05:30:00,69.3,64.9,30.04,ESE,108,4.0,5.0,86,0.00,,SKC,0.00,VWS V14.01,2013-07-14 09:30:00,
2013-07-14 05:35:00,69.3,64.9,30.05,ESE,115,0.0,6.0,86,0.00,,SKC,0.00,VWS V14.01,2013-07-14 09:35:00,
2013-07-14 05:40:00,69.1,64.7,30.05,ESE,117,4.0,6.0,86,0.00,,SKC,0.00,VWS V14.01,2013-07-14 09:40:00,
2013-07-14 05:45:00,68.9,64.6,30.06,ESE,119,0.0,6.0,86,0.00,,SKC,0.00,VWS V14.01,2013-07-14 09:45:00,
2013-07-14 05:51:00,68.8,64.4,30.06,ESE,119,0.0,6.0,86,0.00,,SKC,0.00,VWS V14.01,2013-07-14 09:51:00,
2013-07-14 05:56:00,68.6,64.2,30.06,ESE,119,0.0,6.0,86,0.00,,SKC,0.00,VWS V14.01,2013-07-14 09:56:00,
2013-07-14 06:00:00,68.4,64.4,30.06,ESE,119,0.0,6.0,87,0.00,,SKC,0.00,VWS V14.01,2013-07-14 10:00:00,
2013-07-14 06:01:00,68.4,64.4,30.06,ESE,119,0.0,6.0,87,0.00,,SKC,0.00,VWS V14.01,2013-07-14 10:01:00,
2013-07-14 06:06:00,68.4,64.4,30.06,ESE,119,0.0,3.0,87,0.00,,SKC,0.00,VWS V14.01,2013-07-14 10:06:00,
2013-07-14 06:11:00,68.4,64.4,30.06,ESE,119,5.0,5.0,87,0.00,,SKC,0.00,VWS V14.01,2013-07-14 10:11:00,
2013-07-14 06:16:00,68.4,64.7,30.06,ESE,119,4.0,5.0,88,0.00,,SKC,0.00,VWS V14.01,2013-07-14 10:16:00,
2013-07-14 06:21:00,68.4,64.7,30.06,ESE,119,0.0,5.0,88,0.00,,SKC,0.00,VWS V14.01,2013-07-14 10:21:00,
2013-07-14 06:27:00,68.4,64.7,30.06,SE,129,0.0,6.0,88,0.00,,SKC,0.00,VWS V14.01,2013-07-14 10:27:00,
2013-07-14 06:32:00,68.4,64.7,30.07,SE,129,0.0,6.0,88,0.00,,SKC,0.00,VWS V14.01,2013-07-14 10:32:00,
2013-07-14 06:37:00,68.6,64.9,30.07,SE,129,0.0,6.0,88,0.00,,SKC,0.00,VWS V14.01,2013-07-14 10:37:00,
2013-07-14 06:42:00,68.4,64.7,30.07,SE,129,0.0,6.0,88,0.00,,SKC,0.00,VWS V14.01,2013-07-14 10:42:00,
2013-07-14 06:47:00,68.4,64.7,30.08,SE,129,0.0,6.0,88,0.00,,SKC,0.00,VWS V14.01,2013-07-14 10:47:00,
2013-07-14 06:52:00,68.4,64.7,30.08,SE,129,0.0,6.0,88,0.00,,SKC,0.00,VWS V14.01,2013-07-14 10:52:00,
2013-07-14 06:57:00,68.4,64.7,30.08,SE,129,0.0,6.0,88,0.00,,SKC,0.00,VWS V14.01,2013-07-14 10:57:00,
2013-07-14 07:00:00,68.1,64.4,30.08,SE,129,0.0,6.0,88,0.00,,SKC,0.00,VWS V14.01,2013-07-14 11:00:00,
2013-07-14 07:02:00,68.1,64.4,30.08,SE,129,0.0,0.0,88,0.00,,SKC,0.00,VWS V14.01,2013-07-14 11:02:00,
2013-07-14 07:08:00,68.1,64.4,30.08,SE,129,0.0,0.0,88,0.00,,SKC,0.00,VWS V14.01,2013-07-14 11:08:00,
2013-07-14 07:13:00,68.1,64.7,30.08,SE,129,0.0,0.0,89,0.00,,SKC,0.00,VWS V14.01,2013-07-14 11:13:00,
2013-07-14 07:18:00,68.3,64.9,30.09,SE,129,0.0,0.0,89,0.00,,SKC,0.00,VWS V14.01,2013-07-14 11:18:00,
2013-07-14 07:23:00,68.8,65.4,30.09,SE,129,0.0,1.0,89,0.00,,SKC,0.00,VWS V14.01,2013-07-14 11:23:00,
2013-07-14 07:28:00,69.1,65.7,30.09,SE,129,5.0,5.0,89,0.00,,SKC,0.00,VWS V14.01,2013-07-14 11:28:00,
2013-07-14 07:33:00,69.3,65.6,30.10,SE,129,4.0,5.0,88,0.00,,SKC,0.00,VWS V14.01,2013-07-14 11:33:00,
2013-07-14 07:38:00,69.6,65.9,30.10,SE,129,0.0,5.0,88,0.00,,SKC,0.00,VWS V14.01,2013-07-14 11:38:00,
2013-07-14 07:44:00,69.8,66.1,30.10,SE,129,0.0,5.0,88,0.00,,SKC,0.00,VWS V14.01,2013-07-14 11:44:00,
2013-07-14 07:49:00,70.1,66.1,30.10,SE,129,0.0,5.0,87,0.00,,SKC,0.00,VWS V14.01,2013-07-14 11:49:00,
2013-07-14 07:54:00,70.4,66.3,30.10,SE,129,0.0,6.0,87,0.00,,SKC,0.00,VWS V14.01,2013-07-14 11:54:00,
2013-07-14 07:59:00,70.9,66.8,30.10,SE,129,2.0,6.0,87,0.00,,SKC,0.00,VWS V14.01,2013-07-14 11:59:00,
2013-07-14 08:00:00,71.1,66.7,30.10,SE,129,0.0,6.0,86,0.00,,SKC,0.00,VWS V14.01,2013-07-14 12:00:00,
2013-07-14 08:04:00,71.5,67.1,30.10,SE,129,0.0,0.0,86,0.00,,SKC,0.00,VWS V14.01,2013-07-14 12:04:00,
2013-07-14 08:09:00,72.1,67.3,30.10,SE,129,0.0,0.0,85,0.00,,SKC,0.00,VWS V14.01,2013-07-14 12:09:00,
2013-07-14 08:14:00,72.8,67.3,30.10,SE,129,0.0,1.0,83,0.00,,SKC,0.00,VWS V14.01,2013-07-14 12:14:00,
2013-07-14 08:19:00,73.3,67.5,30.11,SE,129,0.0,1.0,82,0.00,,SKC,0.00,VWS V14.01,2013-07-14 12:19:00,
2013-07-14 08:25:00,73.9,67.3,30.11,SE,129,0.0,3.0,80,0.00,,SKC,0.00,VWS V14.01,2013-07-14 12:25:00,
2013-07-14 08:30:00,74.2,67.6,30.11,SE,129,0.0,3.0,80,0.00,,SKC,0.00,VWS V14.01,2013-07-14 12:30:00,
2013-07-14 08:35:00,74.7,67.8,30.11,SE,129,0.0,3.0,79,0.00,,SKC,0.00,VWS V14.01,2013-07-14 12:35:00,
2013-07-14 08:40:00,75.4,68.1,30.11,SE,129,0.0,3.0,78,0.00,,SKC,0.00,VWS V14.01,2013-07-14 12:40:00,
2013-07-14 08:45:00,75.6,68.3,30.11,SE,129,0.0,3.0,78,0.00,,SKC,0.00,VWS V14.01,2013-07-14 12:45:00,
2013-07-14 08:50:00,75.6,68.3,30.11,SE,128,1.0,5.0,78,0.00,,SKC,0.00,VWS V14.01,2013-07-14 12:50:00,
2013-07-14 08:55:00,76.0,68.3,30.11,SE,128,0.0,5.0,77,0.00,,SKC,0.00,VWS V14.01,2013-07-14 12:55:00,
2013-07-14 09:00:00,76.1,68.0,30.11,SE,128,0.0,5.0,76,0.00,,SKC,0.00,VWS V14.01,2013-07-14 13:00:00,
2013-07-14 09:06:00,76.3,68.2,30.11,SE,128,0.0,5.0,76,0.00,,SKC,0.00,VWS V14.01,2013-07-14 13:06:00,
2013-07-14 09:11:00,76.3,67.8,30.11,SE,128,0.0,5.0,75,0.00,,SKC,0.00,VWS V14.01,2013-07-14 13:11:00,
2013-07-14 09:16:00,76.5,68.4,30.11,SE,128,0.0,5.0,76,0.00,,SKC,0.00,VWS V14.01,2013-07-14 13:16:00,
2013-07-14 09:21:00,76.8,68.3,30.11,SE,128,0.0,5.0,75,0.00,,SKC,0.00,VWS V14.01,2013-07-14 13:21:00,
2013-07-14 09:26:00,77.2,68.3,30.11,SE,137,0.0,6.0,74,0.00,,SKC,0.00,VWS V14.01,2013-07-14 13:26:00,
2013-07-14 09:31:00,77.6,67.9,30.11,SE,137,0.0,6.0,72,0.00,,SKC,0.00,VWS V14.01,2013-07-14 13:31:00,
2013-07-14 09:36:00,78.3,69.3,30.11,SE,137,0.0,6.0,74,0.00,,SKC,0.00,VWS V14.01,2013-07-14 13:36:00,
2013-07-14 09:41:00,78.5,68.7,30.11,SE,138,3.0,6.0,72,0.00,,SKC,0.00,VWS V14.01,2013-07-14 13:41:00,
2013-07-14 09:47:00,78.3,67.7,30.11,ESE,120,0.0,6.0,70,0.00,,SKC,0.00,VWS V14.01,2013-07-14 13:47:00,
2013-07-14 09:52:00,78.5,67.9,30.11,ESE,123,2.0,6.0,70,0.00,,SKC,0.00,VWS V14.01,2013-07-14 13:52:00,
2013-07-14 09:57:00,78.6,68.0,30.11,ESE,123,0.0,6.0,70,0.00,,SKC,0.00,VWS V14.01,2013-07-14 13:57:00,
2013-07-14 10:00:00,79.0,68.0,30.11,ESE,123,0.0,6.0,69,0.00,,SKC,0.00,VWS V14.01,2013-07-14 14:00:00,
2013-07-14 10:02:00,79.0,68.0,30.11,ESE,123,0.0,0.0,69,0.00,,SKC,0.00,VWS V14.01,2013-07-14 14:02:00,
2013-07-14 10:07:00,79.6,68.1,30.11,ESE,123,5.0,5.0,68,0.00,,SKC,0.00,VWS V14.01,2013-07-14 14:07:00,
2013-07-14 10:12:00,79.8,67.9,30.11,ESE,123,0.0,5.0,67,0.00,,SKC,0.00,VWS V14.01,2013-07-14 14:12:00,
2013-07-14 10:17:00,79.8,67.4,30.11,SE,131,0.0,8.0,66,0.00,,SKC,0.00,VWS V14.01,2013-07-14 14:17:00,
2013-07-14 10:22:00,79.9,67.5,30.11,WSW,249,0.0,8.0,66,0.00,,SKC,0.00,VWS V14.01,2013-07-14 14:22:00,
2013-07-14 10:27:00,80.3,67.9,30.11,West,261,6.0,8.0,66,0.00,,SKC,0.00,VWS V14.01,2013-07-14 14:27:00,
2013-07-14 10:32:00,80.5,67.7,30.11,WSW,251,0.0,8.0,65,0.00,,SKC,0.00,VWS V14.01,2013-07-14 14:32:00,
2013-07-14 10:38:00,80.7,67.4,30.11,WSW,252,0.0,8.0,64,0.00,,SKC,0.00,VWS V14.01,2013-07-14 14:38:00,
2013-07-14 10:43:00,80.7,67.8,30.11,WSW,253,4.0,8.0,65,0.00,,SKC,0.00,VWS V14.01,2013-07-14 14:43:00,
2013-07-14 10:48:00,80.9,67.6,30.11,WSW,254,6.0,8.0,64,0.00,,SKC,0.00,VWS V14.01,2013-07-14 14:48:00,
2013-07-14 10:53:00,80.9,68.5,30.11,West,261,1.0,8.0,66,0.00,,SKC,0.00,VWS V14.01,2013-07-14 14:53:00,
2013-07-14 10:58:00,81.1,67.8,30.11,West,261,0.0,8.0,64,0.00,,SKC,0.00,VWS V14.01,2013-07-14 14:58:00,
2013-07-14 11:00:00,81.4,68.1,30.10,West,261,0.0,8.0,64,0.00,,SKC,0.00,VWS V14.01,2013-07-14 15:00:00,
2013-07-14 11:03:00,81.4,67.1,30.10,West,261,0.0,5.0,62,0.00,,SKC,0.00,VWS V14.01,2013-07-14 15:03:00,
2013-07-14 11:08:00,81.6,67.3,30.10,WNW,296,4.0,7.0,62,0.00,,SKC,0.00,VWS V14.01,2013-07-14 15:08:00,
2013-07-14 11:14:00,81.6,67.3,30.10,West,270,1.0,7.0,62,0.00,,SKC,0.00,VWS V14.01,2013-07-14 15:14:00,
2013-07-14 11:19:00,81.8,67.1,30.10,West,270,0.0,7.0,61,0.00,,SKC,0.00,VWS V14.01,2013-07-14 15:19:00,
2013-07-14 11:24:00,82.2,67.4,30.10,West,270,0.0,7.0,61,0.00,,SKC,0.00,VWS V14.01,2013-07-14 15:24:00,
2013-07-14 11:29:00,82.4,68.1,30.10,West,270,0.0,7.0,62,0.00,,SKC,0.00,VWS V14.01,2013-07-14 15:29:00,
2013-07-14 11:34:00,82.4,66.7,30.11,West,270,0.0,7.0,59,0.00,,SKC,0.00,VWS V14.01,2013-07-14 15:34:00,
2013-07-14 11:39:00,82.8,67.5,30.11,West,270,0.0,7.0,60,0.00,,SKC,0.00,VWS V14.01,2013-07-14 15:39:00,
2013-07-14 11:44:00,82.4,66.2,30.11,West,268,7.0,9.0,58,0.00,,SKC,0.00,VWS V14.01,2013-07-14 15:44:00,
2013-07-14 11:50:00,82.4,67.6,30.11,West,274,1.0,9.0,61,0.00,,SKC,0.00,VWS V14.01,2013-07-14 15:50:00,
2013-07-14 11:55:00,82.4,68.1,30.11,West,274,6.0,9.0,62,0.00,,SKC,0.00,VWS V14.01,2013-07-14 15:55:00,
2013-07-14 12:00:00,82.8,67.0,30.11,West,274,0.0,9.0,59,0.00,,SKC,0.00,VWS V14.01,2013-07-14 16:00:00,
2013-07-14 12:05:00,83.0,67.2,30.10,West,274,0.0,6.0,59,0.00,,SKC,0.00,VWS V14.01,2013-07-14 16:05:00,
2013-07-14 12:10:00,83.6,67.3,30.10,West,274,1.0,6.0,58,0.00,,SKC,0.00,VWS V14.01,2013-07-14 16:10:00,
2013-07-14 12:15:00,84.0,68.1,30.10,West,274,0.0,6.0,59,0.00,,SKC,0.00,VWS V14.01,2013-07-14 16:15:00,
2013-07-14 12:20:00,84.1,67.2,30.10,West,274,1.0,6.0,57,0.00,,SKC,0.00,VWS V14.01,2013-07-14 16:20:00,
2013-07-14 12:25:00,83.4,67.1,30.10,West,274,0.0,6.0,58,0.00,,SKC,0.00,VWS V14.01,2013-07-14 16:25:00,
2013-07-14 12:31:00,83.4,67.1,30.10,West,274,0.0,6.0,58,0.00,,SKC,0.00,VWS V14.01,2013-07-14 16:31:00,
2013-07-14 12:36:00,83.8,68.0,30.10,West,274,2.0,6.0,59,0.00,,SKC,0.00,VWS V14.01,2013-07-14 16:36:00,
2013-07-14 12:41:00,83.8,68.4,30.10,West,274,0.0,6.0,60,0.00,,SKC,0.00,VWS V14.01,2013-07-14 16:41:00,
2013-07-14 12:46:00,84.0,67.7,30.10,West,274,0.0,6.0,58,0.00,,SKC,0.00,VWS V14.01,2013-07-14 16:46:00,
2013-07-14 12:51:00,83.2,67.4,30.10,West,274,0.0,6.0,59,0.00,,SKC,0.00,VWS V14.01,2013-07-14 16:51:00,
2013-07-14 12:56:00,83.2,69.3,30.10,West,274,0.0,6.0,63,0.00,,SKC,0.00,VWS V14.01,2013-07-14 16:56:00,
2013-07-14 13:00:00,84.1,69.7,30.10,West,274,0.0,6.0,62,0.00,,SKC,0.00,VWS V14.01,2013-07-14 17:00:00,
2013-07-14 13:01:00,84.1,69.7,30.10,West,274,0.0,0.0,62,0.00,,SKC,0.00,VWS V14.01,2013-07-14 17:01:00,
2013-07-14 13:07:00,84.1,68.2,30.10,West,274,0.0,1.0,59,0.00,,SKC,0.00,VWS V14.01,2013-07-14 17:07:00,
2013-07-14 13:12:00,84.0,68.6,30.10,West,274,0.0,1.0,60,0.00,,SKC,0.00,VWS V14.01,2013-07-14 17:12:00,
2013-07-14 13:17:00,84.5,68.1,30.10,NW,322,0.0,5.0,58,0.00,,SKC,0.00,VWS V14.01,2013-07-14 17:17:00,
2013-07-14 13:22:00,84.5,68.1,30.10,NW,322,0.0,5.0,58,0.00,,SKC,0.00,VWS V14.01,2013-07-14 17:22:00,
2013-07-14 13:27:00,84.9,68.0,30.10,NW,322,0.0,5.0,57,0.00,,SKC,0.00,VWS V14.01,2013-07-14 17:27:00,
2013-07-14 13:32:00,85.5,69.6,30.10,NW,322,0.0,5.0,59,0.00,,SKC,0.00,VWS V14.01,2013-07-14 17:32:00,
2013-07-14 13:37:00,85.5,67.5,30.10,NW,321,0.0,6.0,55,0.00,,SKC,0.00,VWS V14.01,2013-07-14 17:37:00,
2013-07-14 13:42:00,84.7,67.3,30.10,NW,321,0.0,6.0,56,0.00,,SKC,0.00,VWS V14.01,2013-07-14 17:42:00,
2013-07-14 13:47:00,85.3,67.3,30.10,NW,321,0.0,6.0,55,0.00,,SKC,0.00,VWS V14.01,2013-07-14 17:47:00,
2013-07-14 13:52:00,86.1,68.6,30.10,NW,321,0.0,6.0,56,0.00,,SKC,0.00,VWS V14.01,2013-07-14 17:52:00,
2013-07-14 13:58:00,86.1,68.6,30.10,NW,321,0.0,6.0,56,0.00,,SKC,0.00,VWS V14.01,2013-07-14 17:58:00,
2013-07-14 14:00:00,85.5,68.0,30.09,NW,321,0.0,6.0,56,0.00,,SKC,0.00,VWS V14.01,2013-07-14 18:00:00,
2013-07-14 14:03:00,85.3,67.8,30.09,NW,321,0.0,0.0,56,0.00,,SKC,0.00,VWS V14.01,2013-07-14 18:03:00,
2013-07-14 14:08:00,85.1,68.7,30.09,NW,321,0.0,0.0,58,0.00,,SKC,0.00,VWS V14.01,2013-07-14 18:08:00,
2013-07-14 14:13:00,85.5,69.1,30.09,NW,321,0.0,0.0,58,0.00,,SKC,0.00,VWS V14.01,2013-07-14 18:13:00,
2013-07-14 14:18:00,85.7,67.2,30.09,NW,321,0.0,0.0,54,0.00,,SKC,0.00,VWS V14.01,2013-07-14 18:18:00,
2013-07-14 14:23:00,85.7,68.7,30.09,NW,321,0.0,3.0,57,0.00,,SKC,0.00,VWS V14.01,2013-07-14 18:23:00,
2013-07-14 14:28:00,86.1,69.1,30.09,NW,321,0.0,3.0,57,0.00,,SKC,0.00,VWS V14.01,2013-07-14 18:28:00,
2013-07-14 14:33:00,86.1,68.6,30.09,NW,321,0.0,3.0,56,0.00,,SKC,0.00,VWS V14.01,2013-07-14 18:33:00,
2013-07-14 14:39:00,85.5,67.5,30.09,NW,321,0.0,3.0,55,0.00,,SKC,0.00,VWS V14.01,2013-07-14 18:39:00,
2013-07-14 14:44:00,85.5,68.0,30.09,NW,321,0.0,3.0,56,0.00,,SKC,0.00,VWS V14.01,2013-07-14 18:44:00,
2013-07-14 14:49:00,86.1,69.1,30.09,West,266,0.0,4.0,57,0.00,,SKC,0.00,VWS V14.01,2013-07-14 18:49:00,
2013-07-14 14:54:00,85.9,67.9,30.09,West,266,0.0,4.0,55,0.00,,SKC,0.00,VWS V14.01,2013-07-14 18:54:00,
2013-07-14 14:59:00,85.3,67.3,30.09,West,266,0.0,4.0,55,0.00,,SKC,0.00,VWS V14.01,2013-07-14 18:59:00,
2013-07-14 15:00:00,85.5,69.6,30.09,West,266,0.0,4.0,59,0.00,,SKC,0.00,VWS V14.01,2013-07-14 19:00:00,
2013-07-14 15:04:00,85.9,69.9,30.09,West,266,0.0,0.0,59,0.00,,SKC,0.00,VWS V14.01,2013-07-14 19:04:00,
2013-07-14 15:09:00,86.1,68.6,30.09,West,266,0.0,0.0,56,0.00,,SKC,0.00,VWS V14.01,2013-07-14 19:09:00,
2013-07-14 15:14:00,85.5,68.0,30.09,West,266,0.0,0.0,56,0.00,,SKC,0.00,VWS V14.01,2013-07-14 19:14:00,
2013-07-14 15:20:00,85.5,67.5,30.09,West,266,0.0,0.0,55,0.00,,SKC,0.00,VWS V14.01,2013-07-14 19:20:00,
2013-07-14 15:25:00,86.5,66.8,30.09,West,266,0.0,0.0,52,0.00,,SKC,0.00,VWS V14.01,2013-07-14 19:25:00,
2013-07-14 15:30:00,87.4,70.8,30.09,West,266,0.0,0.0,58,0.00,,SKC,0.00,VWS V14.01,2013-07-14 19:30:00,
2013-07-14 15:35:00,87.8,68.6,30.09,West,266,0.0,0.0,53,0.00,,SKC,0.00,VWS V14.01,2013-07-14 19:35:00,
2013-07-14 15:40:00,87.2,68.0,30.09,West,266,0.0,1.0,53,0.00,,SKC,0.00,VWS V14.01,2013-07-14 19:40:00,
2013-07-14 15:45:00,86.3,68.8,30.09,West,266,0.0,1.0,56,0.00,,SKC,0.00,VWS V14.01,2013-07-14 19:45:00,
2013-07-14 15:50:00,86.1,68.1,30.09,West,266,0.0,1.0,55,0.00,,SKC,0.00,VWS V14.01,2013-07-14 19:50:00,
2013-07-14 15:55:00,85.9,68.4,30.09,West,266,0.0,1.0,56,0.00,,SKC,0.00,VWS V14.01,2013-07-14 19:55:00,
2013-07-14 16:00:00,85.3,69.4,30.09,West,266,0.0,5.0,59,0.00,,SKC,0.00,VWS V14.01,2013-07-14 20:00:00,
2013-07-14 16:01:00,85.3,68.3,30.09,West,266,0.0,5.0,57,0.00,,SKC,0.00,VWS V14.01,2013-07-14 20:01:00,
2013-07-14 16:06:00,84.9,68.5,30.09,West,266,0.0,0.0,58,0.00,,SKC,0.00,VWS V14.01,2013-07-14 20:06:00,
2013-07-14 16:11:00,85.5,68.5,30.09,West,266,0.0,1.0,57,0.00,,SKC,0.00,VWS V14.01,2013-07-14 20:11:00,
2013-07-14 16:16:00,85.7,68.7,30.08,West,266,0.0,1.0,57,0.00,,SKC,0.00,VWS V14.01,2013-07-14 20:16:00,
2013-07-14 16:21:00,85.3,67.3,30.08,West,266,0.0,5.0,55,0.00,,SKC,0.00,VWS V14.01,2013-07-14 20:21:00,
2013-07-14 16:26:00,85.5,68.5,30.08,West,266,0.0,5.0,57,0.00,,SKC,0.00,VWS V14.01,2013-07-14 20:26:00,
2013-07-14 16:31:00,85.7,68.2,30.08,West,266,0.0,5.0,56,0.00,,SKC,0.00,VWS V14.01,2013-07-14 20:31:00,
2013-07-14 16:36:00,85.9,67.9,30.08,West,266,0.0,5.0,55,0.00,,SKC,0.00,VWS V14.01,2013-07-14 20:36:00,
2013-07-14 16:42:00,86.1,69.6,30.08,West,266,0.0,5.0,58,0.00,,SKC,0.00,VWS V14.01,2013-07-14 20:42:00,
2013-07-14 16:47:00,85.9,69.9,30.08,West,266,0.0,5.0,59,0.00,,SKC,0.00,VWS V14.01,2013-07-14 20:47:00,
2013-07-14 16:52:00,85.5,69.1,30.08,West,266,0.0,5.0,58,0.00,,SKC,0.00,VWS V14.01,2013-07-14 20:52:00,
2013-07-14 16:57:00,85.7,68.2,30.08,West,266,0.0,5.0,56,0.00,,SKC,0.00,VWS V14.01,2013-07-14 20:57:00,
2013-07-14 17:00:00,86.1,69.1,30.08,West,266,0.0,5.0,57,0.00,,SKC,0.00,VWS V14.01,2013-07-14 21:00:00,
2013-07-14 17:02:00,86.3,68.8,30.08,West,266,0.0,0.0,56,0.00,,SKC,0.00,VWS V14.01,2013-07-14 21:02:00,
2013-07-14 17:07:00,87.2,69.6,30.08,West,266,0.0,0.0,56,0.00,,SKC,0.00,VWS V14.01,2013-07-14 21:07:00,
2013-07-14 17:12:00,87.2,69.1,30.08,West,266,0.0,0.0,55,0.00,,SKC,0.00,VWS V14.01,2013-07-14 21:12:00,
2013-07-14 17:18:00,86.5,68.4,30.08,West,266,0.0,0.0,55,0.00,,SKC,0.00,VWS V14.01,2013-07-14 21:18:00,
2013-07-14 17:23:00,85.9,69.4,30.08,West,266,0.0,4.0,58,0.00,,SKC,0.00,VWS V14.01,2013-07-14 21:23:00,
2013-07-14 17:28:00,85.3,68.3,30.08,West,266,0.0,4.0,57,0.00,,SKC,0.00,VWS V14.01,2013-07-14 21:28:00,
2013-07-14 17:33:00,85.1,68.7,30.09,West,266,0.0,4.0,58,0.00,,SKC,0.00,VWS V14.01,2013-07-14 21:33:00,
2013-07-14 17:38:00,85.1,68.2,30.09,West,266,0.0,4.0,57,0.00,,SKC,0.00,VWS V14.01,2013-07-14 21:38:00,
2013-07-14 17:43:00,85.1,67.7,30.09,West,266,0.0,4.0,56,0.00,,SKC,0.00,VWS V14.01,2013-07-14 21:43:00,
2013-07-14 17:48:00,85.5,69.6,30.09,West,266,0.0,4.0,59,0.00,,SKC,0.00,VWS V14.01,2013-07-14 21:48:00,
2013-07-14 17:54:00,85.7,69.2,30.09,West,266,0.0,4.0,58,0.00,,SKC,0.00,VWS V14.01,2013-07-14 21:54:00,
2013-07-14 17:59:00,85.9,68.9,30.09,West,266,0.0,4.0,57,0.00,,SKC,0.00,VWS V14.01,2013-07-14 21:59:00,
2013-07-14 18:00:00,85.9,69.4,30.09,West,266,0.0,4.0,58,0.00,,SKC,0.00,VWS V14.01,2013-07-14 22:00:00,
2013-07-14 18:04:00,85.5,69.1,30.09,West,266,0.0,1.0,58,0.00,,SKC,0.00,VWS V14.01,2013-07-14 22:04:00,
2013-07-14 18:09:00,85.3,68.9,30.09,West,266,0.0,1.0,58,0.00,,SKC,0.00,VWS V14.01,2013-07-14 22:09:00,
2013-07-14 18:14:00,84.9,68.5,30.09,West,266,0.0,1.0,58,0.00,,SKC,0.00,VWS V14.01,2013-07-14 22:14:00,
2013-07-14 18:19:00,84.7,68.3,30.08,West,266,0.0,1.0,58,0.00,,SKC,0.00,VWS V14.01,2013-07-14 22:19:00,
2013-07-14 18:24:00,84.7,68.3,30.08,West,266,0.0,1.0,58,0.00,,SKC,0.00,VWS V14.01,2013-07-14 22:24:00,
2013-07-14 18:29:00,84.9,69.5,30.08,West,266,0.0,1.0,60,0.00,,SKC,0.00,VWS V14.01,2013-07-14 22:29:00,
2013-07-14 18:34:00,84.9,69.0,30.08,West,266,0.0,1.0,59,0.00,,SKC,0.00,VWS V14.01,2013-07-14 22:34:00,
2013-07-14 18:40:00,85.3,68.9,30.08,West,266,0.0,1.0,58,0.00,,SKC,0.00,VWS V14.01,2013-07-14 22:40:00,
2013-07-14 18:45:00,85.1,68.2,30.08,West,266,0.0,1.0,57,0.00,,SKC,0.00,VWS V14.01,2013-07-14 22:45:00,
2013-07-14 18:50:00,85.1,69.2,30.08,West,266,0.0,1.0,59,0.00,,SKC,0.00,VWS V14.01,2013-07-14 22:50:00,
2013-07-14 18:55:00,85.1,68.7,30.08,West,266,0.0,1.0,58,0.00,,SKC,0.00,VWS V14.01,2013-07-14 22:55:00,
2013-07-14 19:00:00,84.9,70.0,30.08,West,266,0.0,1.0,61,0.00,,SKC,0.00,VWS V14.01,2013-07-14 23:00:00,
2013-07-14 19:05:00,84.5,68.6,30.08,West,266,0.0,0.0,59,0.00,,SKC,0.00,VWS V14.01,2013-07-14 23:05:00,
2013-07-14 19:10:00,84.5,68.1,30.08,NW,311,0.0,7.0,58,0.00,,SKC,0.00,VWS V14.01,2013-07-14 23:10:00,
2013-07-14 19:16:00,84.5,69.1,30.08,NW,311,0.0,7.0,60,0.00,,SKC,0.00,VWS V14.01,2013-07-14 23:16:00,
2013-07-14 19:21:00,84.5,69.6,30.08,NW,311,0.0,7.0,61,0.00,,SKC,0.00,VWS V14.01,2013-07-14 23:21:00,
2013-07-14 19:26:00,84.3,68.9,30.08,NW,311,0.0,7.0,60,0.00,,SKC,0.00,VWS V14.01,2013-07-14 23:26:00,
2013-07-14 19:31:00,84.1,69.7,30.08,NW,311,0.0,7.0,62,0.00,,SKC,0.00,VWS V14.01,2013-07-14 23:31:00,
2013-07-14 19:36:00,83.8,69.4,30.08,NW,311,0.0,7.0,62,0.00,,SKC,0.00,VWS V14.01,2013-07-14 23:36:00,
2013-07-14 19:41:00,83.6,69.2,30.08,NW,311,0.0,7.0,62,0.00,,SKC,0.00,VWS V14.01,2013-07-14 23:41:00,
2013-07-14 19:46:00,83.2,69.3,30.08,NW,311,0.0,7.0,63,0.00,,SKC,0.00,VWS V14.01,2013-07-14 23:46:00,
2013-07-14 19:51:00,83.0,69.1,30.08,NW,311,0.0,7.0,63,0.00,,SKC,0.00,VWS V14.01,2013-07-14 23:51:00,
2013-07-14 19:56:00,82.8,69.4,30.08,NW,311,0.0,7.0,64,0.00,,SKC,0.00,VWS V14.01,2013-07-14 23:56:00,
2013-07-14 20:00:00,82.6,69.2,30.08,NW,311,0.0,7.0,64,0.00,,SKC,0.00,VWS V14.01,2013-07-15 00:00:00,
2013-07-14 20:02:00,82.6,69.2,30.08,NW,311,0.0,0.0,64,0.00,,SKC,0.00,VWS V14.01,2013-07-15 00:02:00,
2013-07-14 20:07:00,82.4,69.0,30.08,NW,311,0.0,0.0,64,0.00,,SKC,0.00,VWS V14.01,2013-07-15 00:07:00,
2013-07-14 20:12:00,82.2,69.3,30.08,NW,311,0.0,0.0,65,0.00,,SKC,0.00,VWS V14.01,2013-07-15 00:12:00,
2013-07-14 20:17:00,82.0,69.1,30.08,NW,311,0.0,0.0,65,0.00,,SKC,0.00,VWS V14.01,2013-07-15 00:17:00,
2013-07-14 20:22:00,82.0,69.1,30.08,WSW,254,0.0,0.0,65,0.00,,SKC,0.00,VWS V14.01,2013-07-15 00:22:00,
2013-07-14 20:27:00,81.8,69.3,30.08,WSW,254,0.0,0.0,66,0.00,,SKC,0.00,VWS V14.01,2013-07-15 00:27:00,
2013-07-14 20:32:00,81.4,69.0,30.08,WSW,254,0.0,0.0,66,0.00,,SKC,0.00,VWS V14.01,2013-07-15 00:32:00,
2013-07-14 20:38:00,81.2,69.2,30.08,WSW,254,0.0,0.0,67,0.00,,SKC,0.00,VWS V14.01,2013-07-15 00:38:00,
2013-07-14 20:43:00,81.1,69.1,30.08,WSW,254,0.0,0.0,67,0.00,,SKC,0.00,VWS V14.01,2013-07-15 00:43:00,
2013-07-14 20:48:00,81.1,69.1,30.09,WSW,254,0.0,0.0,67,0.00,,SKC,0.00,VWS V14.01,2013-07-15 00:48:00,
2013-07-14 20:53:00,80.9,69.4,30.09,WSW,254,0.0,0.0,68,0.00,,SKC,0.00,VWS V14.01,2013-07-15 00:53:00,
2013-07-14 20:58:00,80.7,69.2,30.09,WSW,254,0.0,0.0,68,0.00,,SKC,0.00,VWS V14.01,2013-07-15 00:58:00,
2013-07-14 21:00:00,80.7,69.2,30.09,WSW,254,0.0,0.0,68,0.00,,SKC,0.00,VWS V14.01,2013-07-15 01:00:00,
2013-07-14 21:03:00,80.7,69.2,30.09,WSW,254,0.0,0.0,68,0.00,,SKC,0.00,VWS V14.01,2013-07-15 01:03:00,
2013-07-14 21:08:00,80.5,69.0,30.09,WSW,254,0.0,0.0,68,0.00,,SKC,0.00,VWS V14.01,2013-07-15 01:08:00,
2013-07-14 21:13:00,80.3,68.8,30.09,WSW,254,0.0,0.0,68,0.00,,SKC,0.00,VWS V14.01,2013-07-15 01:13:00,
2013-07-14 21:18:00,80.3,68.8,30.08,WSW,254,0.0,0.0,68,0.00,,SKC,0.00,VWS V14.01,2013-07-15 01:18:00,
2013-07-14 21:24:00,80.1,68.6,30.08,WSW,254,0.0,0.0,68,0.00,,SKC,0.00,VWS V14.01,2013-07-15 01:24:00,
2013-07-14 21:29:00,80.1,69.0,30.08,WSW,254,0.0,0.0,69,0.00,,SKC,0.00,VWS V14.01,2013-07-15 01:29:00,
2013-07-14 21:34:00,79.9,68.8,30.09,WSW,254,0.0,0.0,69,0.00,,SKC,0.00,VWS V14.01,2013-07-15 01:34:00,
2013-07-14 21:39:00,79.8,68.7,30.09,WSW,254,0.0,0.0,69,0.00,,SKC,0.00,VWS V14.01,2013-07-15 01:39:00,
2013-07-14 21:44:00,79.8,68.7,30.09,WSW,254,0.0,0.0,69,0.00,,SKC,0.00,VWS V14.01,2013-07-15 01:44:00,
2013-07-14 21:49:00,79.8,68.7,30.10,WSW,254,0.0,0.0,69,0.00,,SKC,0.00,VWS V14.01,2013-07-15 01:49:00,
2013-07-14 21:54:00,79.8,68.7,30.10,WSW,254,0.0,0.0,69,0.00,,SKC,0.00,VWS V14.01,2013-07-15 01:54:00,
2013-07-14 21:59:00,79.6,68.5,30.10,WSW,254,0.0,0.0,69,0.00,,SKC,0.00,VWS V14.01,2013-07-15 01:59:00,
2013-07-14 22:00:00,79.6,68.5,30.10,WSW,254,0.0,0.0,69,0.00,,SKC,0.00,VWS V14.01,2013-07-15 02:00:00,
2013-07-14 22:04:00,79.4,68.8,30.10,WSW,254,0.0,0.0,70,0.00,,SKC,0.00,VWS V14.01,2013-07-15 02:04:00,
2013-07-14 22:09:00,79.2,68.6,30.10,WSW,254,0.0,0.0,70,0.00,,SKC,0.00,VWS V14.01,2013-07-15 02:09:00,
2013-07-14 22:15:00,79.0,68.8,30.10,WSW,254,0.0,0.0,71,0.00,,SKC,0.00,VWS V14.01,2013-07-15 02:15:00,
2013-07-14 22:20:00,79.0,68.8,30.10,WSW,254,0.0,0.0,71,0.00,,SKC,0.00,VWS V14.01,2013-07-15 02:20:00,
2013-07-14 22:25:00,79.0,69.2,30.10,WSW,254,0.0,0.0,72,0.00,,SKC,0.00,VWS V14.01,2013-07-15 02:25:00,
2013-07-14 22:30:00,78.8,69.0,30.10,WSW,254,0.0,0.0,72,0.00,,SKC,0.00,VWS V14.01,2013-07-15 02:30:00,
2013-07-14 22:35:00,78.5,69.1,30.11,WSW,254,0.0,0.0,73,0.00,,SKC,0.00,VWS V14.01,2013-07-15 02:35:00,
2013-07-14 22:40:00,78.1,69.1,30.11,WSW,254,0.0,0.0,74,0.00,,SKC,0.00,VWS V14.01,2013-07-15 02:40:00,
2013-07-14 22:45:00,77.9,68.9,30.11,WSW,254,0.0,0.0,74,0.00,,SKC,0.00,VWS V14.01,2013-07-15 02:45:00,
2013-07-14 22:50:00,77.6,69.1,30.11,WSW,254,0.0,0.0,75,0.00,,SKC,0.00,VWS V14.01,2013-07-15 02:50:00,
2013-07-14 22:55:00,77.2,69.1,30.11,WSW,254,0.0,0.0,76,0.00,,SKC,0.00,VWS V14.01,2013-07-15 02:55:00,
2013-07-14 23:00:00,76.8,68.7,30.11,WSW,254,0.0,0.0,76,0.00,,SKC,0.00,VWS V14.01,2013-07-15 03:00:00,
2013-07-14 23:05:00,76.7,68.9,30.11,WSW,254,0.0,0.0,77,0.00,,SKC,0.00,VWS V14.01,2013-07-15 03:05:00,
2013-07-14 23:11:00,76.3,69.3,30.11,WSW,254,0.0,0.0,79,0.00,,SKC,0.00,VWS V14.01,2013-07-15 03:11:00,
2013-07-14 23:16:00,76.0,69.0,30.11,WSW,254,0.0,0.0,79,0.00,,SKC,0.00,VWS V14.01,2013-07-15 03:16:00,
2013-07-14 23:21:00,75.6,69.4,30.11,WSW,254,0.0,0.0,81,0.00,,SKC,0.00,VWS V14.01,2013-07-15 03:21:00,
2013-07-14 23:26:00,75.3,69.1,30.11,WSW,254,0.0,0.0,81,0.00,,SKC,0.00,VWS V14.01,2013-07-15 03:26:00,
2013-07-14 23:31:00,74.9,69.0,30.11,WSW,254,0.0,0.0,82,0.00,,SKC,0.00,VWS V14.01,2013-07-15 03:31:00,
2013-07-14 23:36:00,74.7,68.8,30.11,WSW,254,0.0,0.0,82,0.00,,SKC,0.00,VWS V14.01,2013-07-15 03:36:00,
2013-07-14 23:41:00,74.6,68.8,30.11,WSW,254,0.0,0.0,82,0.00,,SKC,0.00,VWS V14.01,2013-07-15 03:41:00,
2013-07-14 23:46:00,74.6,68.8,30.11,WSW,254,0.0,0.0,82,0.00,,SKC,0.00,VWS V14.01,2013-07-15 03:46:00,
2013-07-14 23:51:00,74.6,68.8,30.11,WSW,254,0.0,0.0,82,0.00,,SKC,0.00,VWS V14.01,2013-07-15 03:51:00,
2013-07-14 23:57:00,74.6,68.8,30.11,WSW,254,0.0,0.0,82,0.00,,SKC,0.00,VWS V14.01,2013-07-15 03:57:00,